Flag for Greece Weather past 2 weeks in Preveza, Greece

Now
79 °F

Passing clouds.


Feels Like: 81 °F
Forecast: 73 / 87 °F
Wind: No wind

Location: Aktion Airport

Current Time: Jul 25, 2014 at 10:04:43 AM

Latest Report: Jul 25, 2014 at 9:20 AM


Visibility: N/A

Pressure: 29.86 "Hg

Humidity: 70%

Dew point: 68 °F

Location of PrevezaLocation

Historic Weather in Preveza — Graph

°F

Preveza temperature yesterday

Maximum temperature yesterday: 82 °F (at 1:20 PM)
Minimum temperature yesterday: 68 °F (at 6:20 AM)
Average temperature yesterday: 77 °F

Past Weeks' High & Low Weather Summary

 TemperatureHumidityPressure
High88 °F (Jul 20, 3:20 PM)100% (Jul 20, 8:50 AM)30.01 "Hg (Jul 20, 8:50 AM)
Low63 °F (Jul 20, 8:50 AM)42% (Jul 12, 10:50 AM)29.71 "Hg (Jul 11, 6:20 AM)
Average78 °F64%29.87 "Hg
* Reported Jul 10 8:20 AM — Jul 25 8:50 AM, Preveza, Weather by CustomWeather, © 2014

Note: Actual official high and low records may vary slightly from our data, if they occured in-between our weather recording intervals... More about our weather records

Advertising

Preveza weather history for previous 24 hours

 ConditionsComfort  
Time TempWeatherWind HumidityBarometerVisibility
8:50 AM
Jul 25
77 °FPassing clouds.No wind79%29.86 "HgN/A
8:20 AM77 °FPassing clouds.6 mph79%29.86 "HgN/A
7:50 AM77 °FPassing clouds.No wind79%29.86 "HgN/A
7:20 AM73 °FPassing clouds.No wind83%29.86 "HgN/A
6:50 AM72 °FPassing clouds.No wind83%29.86 "HgN/A
6:20 AM73 °FPassing clouds.No wind83%29.86 "HgN/A
2:50 AM75 °FPassing clouds.10 mph78%29.86 "HgN/A
1:50 AM75 °FPassing clouds.9 mph83%29.86 "HgN/A
12:50 AM77 °FPassing clouds.8 mph79%29.89 "HgN/A
11:50 PM
Jul 24
77 °FPassing clouds.10 mph79%29.86 "HgN/A
10:50 PM77 °FPassing clouds.12 mph74%29.86 "HgN/A
9:50 PM77 °FPassing clouds.12 mph74%29.86 "HgN/A
8:50 PM77 °FPassing clouds.10 mph69%29.83 "HgN/A
8:20 PM77 °FPassing clouds.12 mph69%29.83 "HgN/A
7:50 PM79 °FPassing clouds.13 mph65%29.83 "HgN/A
7:20 PM79 °FPassing clouds.15 mph65%29.83 "HgN/A
6:50 PM81 °FPassing clouds.16 mph62%29.83 "HgN/A
6:20 PM81 °FPassing clouds.16 mph58%29.83 "HgN/A
5:50 PM82 °FPassing clouds.16 mph55%29.83 "HgN/A
5:20 PM82 °FPassing clouds.16 mph55%29.83 "HgN/A
4:50 PM82 °FPassing clouds.13 mph58%29.83 "HgN/A
4:20 PM82 °FPassing clouds.13 mph58%29.83 "HgN/A
3:50 PM82 °FPassing clouds.13 mph58%29.83 "HgN/A
3:20 PM82 °FPassing clouds.14 mph58%29.83 "HgN/A
2:50 PM82 °FPassing clouds.13 mph58%29.83 "HgN/A
2:20 PM82 °FPassing clouds.8 mph58%29.83 "HgN/A
1:50 PM82 °FPassing clouds.9 mph58%29.83 "HgN/A
1:20 PM82 °FPassing clouds.8 mph55%29.86 "HgN/A
12:50 PM81 °FPassing clouds.8 mph58%29.86 "HgN/A
12:20 PM81 °FPassing clouds.7 mph58%29.86 "HgN/A
11:50 AM79 °FPassing clouds.6 mph65%29.86 "HgN/A
11:20 AM81 °FPassing clouds.No wind51%29.83 "HgN/A
10:50 AM79 °FPassing clouds.No wind65%29.83 "HgN/A
10:20 AM77 °FPassing clouds.No wind69%29.83 "HgN/A
Weather by CustomWeather, © 2014

See weather overviewHow to use our weather pages